Location: Unspecified
(35.7250°N, 0.0000°E)
Time: 20:39:18
(UTC+00:00)

Explorer 7 - Pass Details

Date: 21 June 2019
Orbit: 485 x 680 km, 50.3° (Epoch: 17 July)

Event Time Altitude Azimuth Distance (km) Brightness Sun altitude
Rises 06:53:30 0° 181° (S) 2,661 10.2 23.5°
Reaches altitude 10° 06:56:44 10° 153° (SSE) 1,821 9.7 24.2°
Maximum altitude 06:58:40 13° 125° (SE) 1,664 10.0 24.5°
Drops below altitude 10° 07:00:40 10° 97° (E) 1,885 11.0 24.9°
Sets 07:04:06 0° 70° (ENE) 2,842 11.8 25.6°
